Location: Dirlewang
(48.0019°N, 10.5031°E)
Time: 12:52:49
(UTC+00:00)

Daily predictions for brighter satellites

Satellite Brightness Start Highest point End
(mag) Time Altitude Azimuth Time Altitude Azimuth Time Altitude Azimuth
IRIDIUM 104 4.4 19:47:50 10° N 19:53:05 87° W 19:58:18 10° S
Cosmos 841 Rocket 4.3 19:50:43 10° N 19:55:41 40° ENE 20:00:38 10° SE
Cosmos 1766 4.0 19:52:14 10° NNW 19:55:53 50° W 19:59:30 10° S
SPOT 5 2.6 19:52:13 10° SSE 19:56:30 82° ENE 20:00:55 10° NNW
Orbus 7S? 4.1 19:50:54 10° WSW 19:57:08 65° NW 20:00:20 10° NE
ERS-1 Rocket 3.2 19:53:15 10° SSE 19:58:10 57° ENE 20:03:06 10° N
Cosmos 1763 Rocket 3.8 19:53:40 10° NNW 19:58:56 71° WSW 20:04:04 10° SSE
Cosmos 1553 Rocket 4.0 19:54:36 10° N 20:00:49 84° E 20:07:04 10° S
Cosmos 1626 4.5 20:00:38 10° SW 20:03:12 22° WNW 20:05:46 10° NNW
S3M 4.4 19:57:13 10° N 20:03:26 50° ENE 20:09:32 10° SSE
Spot 2 Rocket 3.9 20:00:42 10° SE 20:05:34 51° ENE 20:10:30 10° N
Okean-O 3.6 20:09:27 10° S 20:13:42 46° W 20:17:58 10° NNW
Cosmos 1441 Rocket 3.0 20:10:06 10° N 20:13:43 79° ENE 20:17:20 10° SSE
Cosmos 2360 Rocket 3.2 20:09:58 10° NNW 20:15:14 37° NE 20:20:27 10° ESE
ATLAS 2AS CENTAUR R/B 3.4 20:10:16 10° NW 20:16:55 47° NE 20:23:18 10° ESE
Cosmos 2266 Rocket 4.2 20:11:48 10° SSE 20:17:55 56° E 20:24:10 10° NNE
Cosmos 1733 Rocket 4.3 20:15:01 10° NNE 20:18:50 28° ENE 20:22:29 11° SE
Cosmos 1300 3.8 20:17:08 10° NNE 20:20:15 27° ENE 20:23:03 12° SE
USA 245 3.2 20:18:53 10° SSE 20:22:14 88° E 20:26:32 10° NNW
Cosmos 1674 3.8 20:19:56 10° SSW 20:23:12 40° WNW 20:26:30 10° N
Cosmos 2333 Rocket 3.1 20:18:16 10° NNW 20:23:40 39° NE 20:29:02 10° ESE
SL-16 R/B 2.3 20:18:48 10° NNW 20:24:30 76° ENE 20:29:51 12° SSE
Cosmos 1515 Rocket 4.4 20:20:19 10° SSW 20:24:31 51° WNW 20:28:46 10° N
In-Cosmos 22 4.2 20:19:13 10° S 20:24:48 68° E 20:30:17 10° NNE
Cosmos 1908 3.3 20:22:35 10° NNW 20:26:10 69° W 20:29:45 10° S
Cosmos 1470 3.5 20:22:46 10° NNW 20:26:19 46° W 20:29:52 10° SSW
Cosmos 468 Rocket 4.4 20:22:36 10° NNW 20:27:46 61° WSW 20:32:50 10° S
Cosmos 2082 Rocket 3.2 20:23:37 10° SW 20:29:11 52° NW 20:34:46 10° NNE
Atlas Centaur 2 4.2 20:23:26 10° SW 20:29:20 22° S 20:34:35 12° SE
Ariane Rocket 3.0 20:25:04 10° SSE 20:30:08 77° ENE 20:35:15 10° NNW
Cosmos 2228 Rocket 3.9 20:28:12 11° SSE 20:32:11 37° E 20:36:24 10° NNE
SL-14 R/B 4.0 20:29:37 12° SSE 20:32:41 34° E 20:36:09 10° NNE
RESURS DK-1 2.5 20:32:00 10° NNW 20:36:03 62° ENE 20:39:23 15° SE
Okean O Rocket 4.2 20:33:28 10° SW 20:36:14 16° W 20:39:00 10° NW
Tiangong 0.0 20:36:50 10° SW 20:38:37 14° SSW 20:39:45 12° S
Cosmos 1869 Rocket 3.8 20:36:37 10° NNW 20:41:03 72° W 20:45:29 10° S
Cosmos 1850 Rocket 4.4 20:36:31 10° S 20:41:28 44° ESE 20:46:24 10° NE
Cosmos 1346 Rocket 3.3 20:39:57 10° N 20:43:42 44° ENE 20:46:26 16° SE
Terra 2.1 20:39:45 10° S 20:44:26 66° WSW 20:49:08 10° NNW
SPOT 3 Rocket 3.6 20:40:43 11° SSE 20:45:36 86° WSW 20:50:49 10° NNW
USA 281 4.1 20:42:10 10° ESE 20:48:11 40° NE 20:54:14 10° NNW
Timation 1 Rocket 4.3 20:44:08 10° SSW 20:50:00 65° ESE 20:55:54 10° NE
EXPRESS MD2 1.9 20:50:47 10° WSW 20:53:28 86° N 20:55:38 10° ENE
Meteor 1-22 Rocket 4.5 20:49:23 10° NNW 20:55:00 72° W 21:00:32 11° S
Cosmos 2315 Rocket 4.1 20:50:15 10° N 20:56:40 83° E 21:02:15 14° S
Cosmos 1758 3.2 20:54:21 10° N 20:58:17 85° E 21:01:10 18° S
Cosmos 1741 Rocket 4.1 20:55:25 10° S 21:00:35 61° ESE 21:05:50 10° NNE
Landsat 4 4.3 21:00:47 13° S 21:03:35 44° W 21:06:55 10° NNW
Cosmos 968 Rocket 3.8 20:59:28 13° S 21:03:45 48° ESE 21:08:44 10° NNE
Cosmos 2322 Rocket 2.2 21:02:39 10° NNW 21:08:22 81° WSW 21:12:36 19° SSE
Cosmos 1814 Rocket 4.4 21:03:19 10° NNW 21:08:33 57° ENE 21:12:20 19° SE
Cosmos 1356 Rocket 3.4 21:06:07 14° S 21:09:40 79° E 21:13:53 10° NNE
SeaSat 1 3.9 21:07:48 10° S 21:12:02 29° WSW 21:16:19 10° NW
Cosmos 1862 Rocket 3.5 21:11:25 17° S 21:14:44 72° E 21:19:10 10° NNE
Meteor 1-21 4.3 21:13:03 13° S 21:18:18 79° E 21:24:08 10° NNE
Okean 2 4.0 21:19:14 24° SE 21:21:06 38° E 21:24:50 10° NNE
USA 234 3.6 21:15:53 10° NE 21:22:24 72° NNW 21:28:54 10° WSW
BREEZE-M DEB (TANK) 4.3 21:01:22 10° WSW 21:23:05 88° NNW 21:27:55 10° ENE
Cosmos 1400 Rocket 4.2 21:23:01 10° SW 21:26:37 36° WNW 21:30:12 10° N
Cosmos 1455 2.8 21:24:51 10° N 21:28:10 39° ENE 21:29:35 26° SE
SL-4 R/B 2.9 21:25:11 10° WNW 21:29:00 49° N 21:33:03 10° ENE
COSMOS 2428 3.9 21:23:58 10° NNW 21:29:11 36° NE 21:33:46 13° ESE
COSMOS 2455 4.5 21:29:11 15° ESE 21:30:38 16° ESE 21:34:04 10° ENE
Meteor 2-10 Rocket 4.5 21:26:30 10° NNW 21:31:50 46° W 21:36:16 14° SSW
Landsat 5 3.9 21:30:32 10° N 21:34:27 60° WNW 21:38:06 12° SSW
Cosmos 1707 Rocket 4.1 21:31:38 13° SSW 21:35:35 59° WNW 21:40:00 10° N
Cosmos 2219 Rocket 2.3 21:30:04 10° NNW 21:35:45 72° ENE 21:39:27 22° SE
ATLAS CENTAUR R/B 1.0 21:35:27 10° SW 21:38:57 81° NW 21:42:34 10° NE
ARIANE 5 R/B 2.7 21:39:26 27° SE 21:41:42 64° ENE 21:46:00 10° N
Cosmos 1315 Rocket 2.8 21:39:54 29° S 21:41:48 65° E 21:45:47 10° NNE
SJ 16-02 1.2 21:39:29 21° SSW 21:42:18 78° ESE 21:46:39 10° NNE
Meteor 1-4 Rocket 1.9 21:41:42 36° SSW 21:42:45 85° W 21:45:46 10° N
SL-27 R/B 2.8 21:41:51 19° SW 21:43:32 46° WNW 21:46:16 10° N
Okean 3 3.6 21:41:42 19° SSW 21:44:33 68° WNW 21:48:43 10° N
Cosmos 1953 2.1 21:42:04 10° N 21:45:55 76° E 21:47:31 33° SSE
Cosmos 1241 Rocket 4.4 21:42:43 13° SSW 21:48:13 64° ESE 21:54:23 10° NE
Aureole 3 4.0 21:49:38 19° SSW 21:52:16 57° WNW 21:56:56 10° N
Cosmos 1733 Rocket 4.4 21:52:38 10° NNW 21:56:34 32° W 21:59:30 16° SW
Nadezhda 1 Rocket 4.2 21:51:34 10° N 21:57:52 64° ENE 22:01:33 25° SSE
Cosmos 2360 Rocket 2.9 21:53:58 10° NW 21:59:19 43° WSW 22:02:32 22° SSW
H-2A R/B 2.8 21:59:14 29° SE 22:01:12 58° ENE 22:05:24 10° N
GP-B 3.0 21:57:59 10° N 22:02:25 81° E 22:04:27 32° S
Cosmos 839 Rocket 4.2 21:56:16 10° NW 22:03:09 68° WSW 22:06:44 26° SSE
ATLAS 2AS CENTAUR R/B 3.0 22:01:23 10° NW 22:07:54 50° WSW 22:11:32 25° S
SL-16 R/B 4.1 22:04:05 10° WNW 22:07:56 19° W 22:11:42 10° SW
Cosmos 2333 Rocket 3.0 22:02:37 10° NW 22:07:58 41° WSW 22:11:07 22° SSW
Cosmos 1908 Rocket 3.6 22:04:50 10° NNW 22:09:10 70° W 22:11:05 32° S
Cosmos 1782 Rocket 3.6 22:07:26 10° N 22:11:46 66° E 22:13:29 35° SSE
BREEZE-M DEB (TANK) 3.7 22:10:52 10° W 22:13:50 74° N 22:22:19 10° E
Okean 1-7 3.6 22:13:21 22° SSW 22:15:58 52° WNW 22:20:14 10° N
Atlas Centaur 2 4.4 22:12:32 10° SW 22:16:47 16° SSW 22:16:47 16° SSW
Cosmos 1408 2.6 22:22:39 43° E 22:22:41 43° E 22:25:33 10° NNE
Cosmos 1242 Rocket 2.1 22:23:20 55° WSW 22:23:37 60° WNW 22:26:22 10° N
BlueWalker 3 2.7 22:24:27 32° ESE 22:24:27 32° ESE 22:27:10 10° ENE
BREEZE-M DEB (TANK) 3.6 22:20:11 10° WNW 22:23:55 32° N 22:25:56 10° ENE
MINOTAUR 4 R/B 4.1 22:22:41 10° N 22:25:32 52° WNW 22:26:10 41° WSW
Cosmos 405 Rocket 4.4 22:25:24 10° NNE 22:28:30 24° ENE 22:29:56 19° ESE
Cosmos 1570 Rocket 4.1 22:26:40 10° NNW 22:32:01 72° WSW 22:34:28 33° S
Cosmos 1300 Rocket 3.4 22:28:04 10° N 22:32:23 89° ENE 22:33:55 40° S
USA 281 3.6 22:28:55 26° S 22:32:32 51° WSW 22:38:57 10° NW
Meteor 1-24 Rocket 4.4 22:30:01 27° SE 22:32:37 42° E 22:37:55 10° NNE
Cosmos 2237 Rocket 3.1 22:27:39 10° NNW 22:33:05 43° NE 22:37:15 16° ESE
Cosmos 1238 4.4 22:30:17 10° NNW 22:33:24 70° W 22:34:07 50° SSW
Cosmos 2322 3.7 22:27:45 10° NNW 22:33:26 74° WSW 22:36:10 32° SSE
ALOS 2 2.6 22:32:43 37° SSE 22:34:26 76° ENE 22:38:50 10° N
H-2A R/B 3.5 22:31:02 10° NE 22:34:26 23° E 22:35:22 21° ESE
Cosmos 371 Rocket 3.8 22:38:27 34° SSE 22:39:55 44° ESE 22:44:29 10° NE
Cosmos 2227 Rocket 3.8 22:38:36 16° ESE 22:40:14 18° E 22:43:59 10° ENE
CZ-3 Stage 3 4.4 22:16:06 10° W 22:40:58 31° SW 22:45:18 24° S
CZ-4C R/B 2.4 22:42:24 34° SE 22:43:21 37° ESE 22:48:19 10° NE
BREEZE-M DEB (TANK) 3.2 22:45:04 48° SE 22:45:04 48° SE 22:49:18 10° ENE
Cosmos 1703 3.4 22:44:41 45° SE 22:45:21 53° E 22:48:58 10° NNE
Cosmos 1980 4.2 22:40:27 10° NNW 22:46:02 55° ENE 22:49:45 21° SE
Cosmos 1709 Rocket 4.0 22:45:06 29° S 22:48:36 83° E 22:54:59 10° N
Spot 4 4.1 22:49:10 33° SSW 22:51:03 56° W 22:55:48 10° NNW
Cosmos 2322 Rocket 4.4 22:48:51 10° WNW 22:51:27 13° W 22:54:03 10° WSW
NOSS 0 Rocket 3.9 22:49:03 10° NNW 22:55:19 87° WSW 22:58:44 29° SSE
Cosmos 158 Rocket 4.1 22:50:51 10° NNW 22:56:07 64° WSW 22:58:13 35° S
Cosmos 2242 Rocket 3.7 22:57:30 37° SSW 22:59:17 77° W 23:03:52 10° N
Sich 1 Rocket 4.4 22:55:20 10° N 22:59:31 41° ENE 23:01:19 27° SE
Cosmos 2297 Rocket 2.6 22:57:55 32° SSE 23:00:02 48° ESE 23:05:27 10° NE
Meteor 2-5 Rocket 3.9 22:57:47 32° S 23:00:36 70° E 23:06:27 10° NNE
EXPRESS MD2 4.3 22:58:49 10° WNW 22:59:34 18° WNW 22:59:34 18° WNW
Cosmos 1455 4.3 23:00:16 10° NW 23:02:15 15° W 23:03:18 13° WSW
Cosmos 2208 Rocket 4.4 22:58:57 10° NNW 23:03:59 51° WSW 23:05:55 33° SSW
GEOS 3 Rocket 4.1 22:59:57 10° NE 23:04:48 40° ESE 23:06:13 33° SSE
Cosmos 1892 3.6 23:06:43 29° ESE 23:07:11 30° E 23:10:18 10° NNE
SL-4 R/B 2.0 23:04:00 10° WNW 23:08:04 81° NNE 23:12:04 12° ESE
Cosmos 773 Rocket 3.9 23:03:04 10° NNW 23:08:15 89° WSW 23:10:31 35° SSE
COSMOS 2428 3.2 23:08:10 10° NW 23:13:33 45° WSW 23:15:45 31° SSW
CENTAUR R/B 3.5 23:12:45 22° SE 23:14:30 25° ESE 23:19:45 10° ENE
Cosmos 2098 Rocket 4.0 23:08:25 10° N 23:15:03 86° W 23:18:27 31° S
COSMOS 2455 2.8 23:12:16 28° SSW 23:15:38 83° ESE 23:21:43 10° NE
NOSS 8 (H) 4.3 23:15:28 54° SW 23:16:10 90° SSW 23:19:15 10° NE
ATLAS CENTAUR R/B 4.0 23:15:10 10° WNW 23:17:13 14° NNW 23:19:19 10° N
Cosmos 1503 Rocket 4.0 23:15:43 35° S 23:17:58 73° ESE 23:23:17 10° NNE
Cosmos 2219 Rocket 3.8 23:15:04 10° NW 23:19:05 20° W 23:21:08 17° SW
Cosmos 1777 Rocket 4.1 23:18:39 36° S 23:20:45 65° ESE 23:26:00 10° NNE
SJ 16-02 3.9 23:18:46 10° W 23:21:14 15° NW 23:23:42 10° NNW
PSLV R/B 3.7 23:27:23 10° N 23:31:35 64° WNW 23:33:06 36° SW
Cosmos 332 Rocket 4.2 23:31:18 35° SSE 23:32:59 51° ESE 23:37:43 10° NNE
Cosmos 304 Rocket 3.8 23:31:07 34° SW 23:33:10 75° WNW 23:37:58 10° NNE
Cosmos 2263 Rocket 3.9 23:33:49 15° SE 23:36:06 20° E 23:40:00 10° NE
Cosmos 1174 4.1 23:32:48 10° NW 23:37:55 80° NE 23:39:54 31° SE
Okean 1 Rocket 3.1 23:37:04 10° N 23:41:25 70° E 23:43:06 36° SSE
Cosmos 2181 Rocket 4.1 23:40:24 10° NNW 23:46:32 62° W 23:49:34 30° SSW
Cosmos 1825 1.8 23:47:12 61° S 23:47:45 89° E 23:51:11 10° N
Helios 1A Rocket 4.2 23:46:37 19° ESE 23:48:45 33° ENE 23:52:10 10° N
